Spokane, WA
on Wednesday, December 5, 2012

Wednesday
Previous Day Next Day
Daily Summary
 ActualAverageRecord
Temperature
Mean Temperature °F 29°F  
Max Temperature 48°F 34°F 53°F (1944)
Min Temperature 34°F 24°F 0°F (1919)
Degree Days
Heating Degree Days 24 36  
Month to date heating degree days 111 178  
Since 1 July heating degree days 1496 1845  
Cooling Degree Days 0 0  
Month to date cooling degree days 0 0  
Year to date cooling degree days 535 450  
Moisture
Dew Point 31°F   
Average Humidity 71    
Maximum Humidity 93    
Minimum Humidity 49    
Precipitation
Precipitation T in 0.08 in 0.75 in (2003)
Month to date precipitation 0.79 0.42  
Year to date precipitation 19.53 14.68  
Snow
Snow 0.00 in 0.40 in 3.80 in (2001)
Month to date snowfall 0.0 2.0  
Since 1 July snowfall 5.9 9.5  
Snow Depth 0.00 in   
Wind
Wind Speed 17 mph   
Max Wind Speed 32 mph   
Max Gust Speed 41 mph   
Visibility 10 miles   
Events Rain   

Key: T is trace of precipitation, MM is missing value
Source: NWS Daily Summary
Time(PST)TemperatureDew PointHumidity Pressure Visibility Wind DirectionWind SpeedGust SpeedPrecipitationEvents Conditions
12:53 AM 48.0°F 45.0°F 89% 29.70 in 10.0 miles SW 25.3 mph 33.4 mph 0.00 in Rain Light Rain
1:53 AM 48.0°F 45.0°F 89% 29.71 in 10.0 miles SW 27.6 mph 33.4 mph 0.00 in Rain Light Rain
2:53 AM 46.0°F 44.1°F 93% 29.74 in 10.0 miles SW 20.7 mph - 0.00 in   Mostly Cloudy
3:53 AM 44.1°F 41.0°F 89% 29.77 in 10.0 miles WSW 20.7 mph 31.1 mph N/A   Overcast
4:11 AM 44.6°F 39.2°F 81% 29.77 in 10.0 miles SW 20.7 mph 27.6 mph N/A   Scattered Clouds
4:53 AM 41.0°F 37.0°F 86% 29.83 in 10.0 miles WSW 16.1 mph - N/A   Partly Cloudy
6:53 AM 37.0°F 27.0°F 67% 29.92 in 10.0 miles WSW 17.3 mph 26.5 mph N/A   Partly Cloudy
7:53 AM 35.1°F 26.1°F 70% 29.97 in 10.0 miles WSW 17.3 mph - N/A   Scattered Clouds
8:53 AM 37.0°F 26.1°F 65% 30.01 in 10.0 miles WSW 18.4 mph - N/A   Partly Cloudy
9:53 AM 39.0°F 26.1°F 60% 30.04 in 10.0 miles WSW 20.7 mph - N/A   Scattered Clouds
10:53 AM 39.9°F 27.0°F 60% 30.06 in 10.0 miles WSW 21.9 mph 27.6 mph N/A   Scattered Clouds
11:53 AM 42.1°F 27.0°F 55% 30.07 in 10.0 miles WSW 20.7 mph 26.5 mph N/A   Scattered Clouds
12:53 PM 42.1°F 25.0°F 51% 30.09 in 10.0 miles WSW 21.9 mph - N/A   Scattered Clouds
1:53 PM 41.0°F 26.1°F 55% 30.09 in 10.0 miles WSW 19.6 mph - N/A   Mostly Cloudy
2:53 PM 39.9°F 27.0°F 60% 30.10 in 10.0 miles WSW 17.3 mph - N/A   Mostly Cloudy
3:53 PM 39.0°F 27.0°F 62% 30.13 in 10.0 miles SW 11.5 mph - N/A   Mostly Cloudy
4:53 PM 37.0°F 27.0°F 67% 30.16 in 10.0 miles SW 11.5 mph - N/A   Mostly Cloudy
5:53 PM 37.0°F 27.0°F 67% 30.17 in 10.0 miles SSW 6.9 mph - N/A   Mostly Cloudy
6:53 PM 36.0°F 26.1°F 67% 30.19 in 10.0 miles SSW 6.9 mph - N/A   Overcast
7:53 PM 36.0°F 26.1°F 67% 30.18 in 10.0 miles SSW 8.1 mph - N/A   Overcast
8:53 PM 35.1°F 26.1°F 70% 30.17 in 10.0 miles South 5.8 mph - N/A   Overcast
9:53 PM 34.0°F 27.0°F 75% 30.16 in 10.0 miles South 8.1 mph - N/A   Overcast
10:53 PM 34.0°F 26.1°F 73% 30.16 in 10.0 miles SSW 10.4 mph - N/A   Overcast
11:53 PM 34.0°F 27.0°F 75% 30.15 in 10.0 miles SW 12.7 mph - N/A   Overcast
Moon Phase
Dec. 05 Dec. 06 Dec. 13 Dec. 20 Dec. 28
Sunrise:07:22 AM (PST) Moon Rise:11:15 PM (PST)12/5
Sunset:03:59 PM (PST) Moon Set:11:28 AM (PST)12/5

Copyright © 2014 The Weather Underground, Inc.